Tracking 21094 objects as of 14-Aug-2020
HD Live streaming from Space Station
objects crossing your sky now
Track the most recent launched group of Starlink satellites

ARIANE 1 DEB

Track ARIANE 1 DEB now!


NORAD ID: 40779
Int'l Code: 1979-104AG
Perigee: 717.1 km
Apogee: 38,508.6 km
Inclination: 18.4 °
Period: 694.7 minutes
Semi major axis: 25983 km
RCS: Unknown
Launch date: December 24, 1979
Source: European Space Agency (ESA)
Launch site: FRENCH GUIANA (FRGUI)

Note: This is SATELLITE DEBRIS
aabbcc
Your satellite tracking list
Your tracking list is empty




NASA's NSSDC Master Catalog

Two Line Element Set (TLE):
1 40779U 79104AG  20226.05528428  .00000422  00000-0  54197-2 0  9990
2 40779  18.4139 126.4342 7272102 121.3690   0.5461  2.07274839 51026
Source of the keplerian elements: AFSPC